Location: Kerb�bon
(47.7970°N, 3.3487°W)
Time: 13:37:26
(UTC+00:00)

ARIANE 5 R/B - Pass Details

Date: 12 May 2021
Orbit: 620 x 656 km, 98.1° (Epoch: 13 June)

Event Time Altitude Azimuth Distance (km) Brightness Sun altitude
Exits shadow 21:15:27 20° 151° (SSE) 1,448 3.8 -13.2°
Maximum altitude 21:18:23 66° 73° (ENE) 681 2.6 -13.5°
Drops below altitude 10° 21:22:41 10° 351° (N) 2,000 6.1 -14.0°
Sets 21:24:54 0° 349° (N) 2,913 7.1 -14.3°
